Location: Unspecified
(0.0000°N, 0.0000°E)
Time: 12:36:18
(UTC+00:00)

Cosmos 80 Rocket - Pass Details

Date: 03 October 2021
Orbit: 1360 x 1510 km, 56.1° (Epoch: 26 October)

Event Time Altitude Azimuth Distance (km) Brightness Sun altitude
Rises 17:56:48 0° 346° (NNW) 4,607 8.1 -2.0°
Reaches altitude 10° 18:00:08 10° 354° (N) 3,613 7.5 -2.8°
Maximum altitude 18:08:13 37° 59° (ENE) 2,099 5.8 -4.8°
Drops below altitude 10° 18:16:04 10° 123° (ESE) 3,520 6.9 -6.8°
Sets 18:19:14 0° 131° (SE) 4,477 7.5 -7.6°
